Voltar ao catálogo

TURKSAT 5B

AtivoComunicaçõesGEO
NORAD 50212·PAYLOAD·🇹🇷 Turkey

Lançado Dec 19, 2021 de Cape Canaveral Space Force Station

Loading…

TLE

AtualizadoSource: Space-Track

Época: Sep 14, 2026, 05:26 UTC

1 50212U 21126A   26257.22706410  .00000137  00000-0  00000-0 0  9997
2 50212   0.0744 333.9872 0001807 330.1754 172.7663  1.00272882 17191

Acompanhe TURKSAT 5B em tempo real com AllMySat

Download on the App Store